Location: Demre
(36.2444°N, 29.9850°E)
Time: 11:06:37
(UTC+00:00)

Meteor 1-31 Rocket - Pass Details

Date: 11 March 2026
Orbit: 457 x 471 km, 97.6° (Epoch: 11 April)

Event Time Altitude Azimuth Distance (km) Brightness Sun altitude
Exits shadow 18:02:39 38° 326° (NW) 714 3.7 -24.6°
Drops below altitude 10° 18:04:58 10° 342° (NNW) 1,614 5.6 -25.0°
Sets 18:07:02 0° 345° (NNW) 2,496 6.6 -25.4°
